Home   Weather   Copenhagen   Past weeks
Flag for Denmark

Past Weather in Copenhagen, Denmark — Yesterday and Last 2 Weeks

Now
39 °F

Partly sunny.


Feels Like: 31 °F
Forecast: 32 / 36 °F
Wind: 14 mph from Northeast

Location: Koebenhavn-Kastrup Airport

Current Time: Dec 12, 2018 at 10:50:35 am

Latest Report: Dec 12, 2018 at 9:50 am


Visibility: N/A

Pressure: 30.36 "Hg

Humidity: 81%

Dew Point: 34 °F

Location of CopenhagenLocation

Past Weather in Copenhagen — Graph

°F

Copenhagen Temperature Yesterday

Maximum temperature yesterday: 41 °F (at 1:50 am)
Minimum temperature yesterday: 39 °F (at 12:20 am)
Average temperature yesterday: 41 °F

High & Low Weather Summary for the Past Weeks

 TemperatureHumidityPressure
High50 °F (Dec 3, 11:50 am)100% (Nov 29, 3:50 pm)30.39 "Hg (Nov 29, 3:50 pm)
Low28 °F (Nov 27, 8:50 pm)52% (Nov 28, 4:19 pm)28.97 "Hg (Dec 9, 3:50 am)
Average41 °F86%29.75 "Hg
* Reported Nov 27 9:20 am — Dec 12 9:20 am, Copenhagen. Weather by CustomWeather, © 2018

Note: Actual official high and low records may vary slightly from our data, if they occured in-between our weather recording intervals... More about our weather records

Advertising

Copenhagen Weather History for the Previous 24 Hours

Scroll right to see more
 ConditionsComfort  
Time TempWeatherWind HumidityBarometerVisibility
9:20 am
Wed, Dec 12
37 °FPartly sunny.12 mph87%30.36 "HgN/A
8:50 am37 °FPartly sunny.13 mph87%30.36 "HgN/A
8:20 am37 °FPassing clouds.13 mph87%30.33 "HgN/A
7:50 am37 °FPassing clouds.12 mph87%30.33 "HgN/A
6:50 am37 °FPassing clouds.13 mph87%30.33 "HgN/A
6:20 am37 °FPartly cloudy.14 mph81%30.30 "HgN/A
5:50 am39 °FPassing clouds.14 mph75%30.30 "HgN/A
5:20 am39 °FPassing clouds.13 mph75%30.30 "HgN/A
4:50 am37 °FPassing clouds.13 mph87%30.30 "HgN/A
4:20 am37 °FPassing clouds.13 mph81%30.27 "HgN/A
3:50 am39 °FPartly cloudy.13 mph75%30.27 "HgN/A
3:20 am39 °FPartly cloudy.14 mph75%30.27 "HgN/A
2:50 am39 °FPartly cloudy.15 mph81%30.27 "HgN/A
2:20 am39 °FPassing clouds.13 mph81%30.27 "HgN/A
1:50 am41 °FPassing clouds.14 mph76%30.24 "HgN/A
1:20 am41 °FPassing clouds.14 mph76%30.24 "HgN/A
12:50 am41 °FPassing clouds.14 mph76%30.24 "HgN/A
12:20 am41 °FPassing clouds.14 mph76%30.21 "HgN/A
11:50 pm
Tue, Dec 11
41 °FPassing clouds.15 mph76%30.21 "HgN/A
11:20 pm41 °FPassing clouds.14 mph76%30.21 "HgN/A
10:50 pm41 °FPassing clouds.14 mph76%30.18 "HgN/A
10:20 pm41 °FOvercast.14 mph76%30.18 "HgN/A
9:50 pm41 °FOvercast.14 mph76%30.18 "HgN/A
9:20 pm41 °FOvercast.13 mph76%30.18 "HgN/A
8:50 pm41 °FOvercast.14 mph81%30.18 "HgN/A
8:20 pm41 °FOvercast.14 mph81%30.15 "HgN/A
7:50 pm41 °FOvercast.15 mph76%30.15 "HgN/A
7:20 pm41 °FOvercast.15 mph76%30.15 "HgN/A
6:50 pm41 °FOvercast.15 mph76%30.12 "HgN/A
6:20 pm41 °FOvercast.16 mph76%30.12 "HgN/A
5:50 pm41 °FOvercast.17 mph76%30.09 "HgN/A
5:20 pm41 °FOvercast.18 mph76%30.09 "HgN/A
4:50 pm41 °FPassing clouds.18 mph76%30.09 "HgN/A
4:20 pm41 °FPassing clouds.18 mph76%30.07 "HgN/A
3:50 pm41 °FPassing clouds.18 mph76%30.07 "HgN/A
3:20 pm41 °FPartly sunny.17 mph76%30.04 "HgN/A
2:50 pm41 °FPartly sunny.17 mph76%30.04 "HgN/A
2:20 pm41 °FPartly sunny.18 mph76%30.04 "HgN/A
1:50 pm41 °FPartly sunny.18 mph76%30.01 "HgN/A
1:20 pm41 °FPartly sunny.18 mph76%30.01 "HgN/A
12:50 pm41 °FPartly sunny.18 mph76%30.01 "HgN/A
12:20 pm41 °FPartly sunny.18 mph81%29.98 "HgN/A
11:50 am41 °FPartly sunny.17 mph81%29.98 "HgN/A
11:20 am41 °FPartly sunny.18 mph76%29.98 "HgN/A
10:50 am41 °FPartly sunny.18 mph76%29.95 "HgN/A
10:20 am41 °FPartly sunny.20 mph81%29.95 "HgN/A
Weather by CustomWeather, © 2018

See weather overview